Location: Liscomb Game Sanctuary
(45.1633°N, 62.5575°W)
Time: 21:29:17

Cosmos 2227 Rocket - Pass Details

Date: 22 February 2018
Orbit: 840 x 844 km, 71.0° (Epoch: 21 March)

Event Time Altitude Azimuth Distance (km) Brightness Sun altitude
Rises 19:37:38 0° 242° (WSW) 3,388 6.3 -20.0°
Reaches altitude 10° 19:40:30 10° 255° (WSW) 2,457 5.6 -20.5°
Maximum altitude 19:45:07 25° 311° (NW) 1,627 4.3 -21.3°
Drops below altitude 10° 19:49:46 10° 6° (N) 2,467 4.6 -22.2°
Sets 19:52:39 0° 19° (NNE) 3,405 5.3 -22.7°
